[[{"header":{"parameterUnit":"m.s-1","parameterCategory":1,"la1":30.2992,"la2":30.254,"lo1":-89.0895,"lo2":-89.0443,"dy":0.0025,"dx":0.0025,"nx":19,"ny":19,"refTime":"2026-04-08T03:00:00:Z","depth":0,"parameterNumber":2,"parameterNumberName":"U-component_of_WINDS"},"data":[0,0,0,-3.3789,-3.3791,-3.386,-3.386,-3.3985,-3.3987,0,0,0,0,0,0,0,0,0,0,0,-3.379,-3.3792,-3.3789,-3.3791,-3.386,-3.386,-3.3985,-3.3987,0,0,0,0,0,0,0,0,0,0,0,-3.379,-3.3792,-3.3794,-3.3791,-3.386,-3.386,-3.3984,-3.3919,0,0,0,0,0,0,0,0,0,0,-3.3846,-3.3869,-3.3791,-3.3794,-3.3792,-3.386,-3.386,-3.3915,-3.3923,-3.3969,0,-3.4016,0,-3.4003,-3.3997,-3.3998,0,0,0,-3.3774,-3.3863,-3.3861,-3.3794,-3.3793,-3.386,-3.3824,-3.3919,-3.3928,-3.398,-3.4017,-3.4021,-3.4006,-3.3998,-3.3999,-3.4318,-3.432,0,0,-3.3771,-3.3815,-3.3855,-3.3868,-3.386,-3.3822,-3.3827,-3.3924,-3.3968,-3.4018,-3.4023,-3.4008,-3.3999,-3.4,-3.4316,-3.4319,0,0,0,-3.3771,-3.3813,-3.3808,-3.3864,-3.3874,-3.3825,-3.383,-3.3964,-3.3959,-3.4024,-3.4009,-3.4,-3.4002,-3.4313,-3.4317,-3.4472,0,0,0,-3.3768,-3.3813,-3.3807,-3.3835,-3.3873,-3.392,-3.3868,-3.3952,-3.3961,-3.4008,-3.4,-3.4004,-3.4311,-3.4315,-3.4462,-3.4538,0,0,0,-3.3778,-3.3814,-3.3832,-3.3838,-3.3869,-3.3917,-3.3917,-3.3953,-3.3953,-3.3998,-3.4004,-3.4309,-3.4314,-3.4454,-3.4524,-3.4635,0,0,0,-3.3803,-3.3969,-3.3835,-3.4015,-3.3869,-3.4013,-3.3916,-3.4021,-3.4078,-3.4001,-3.4311,-3.4316,-3.4451,-3.4515,-3.4626,-3.4737,-3.4787,0,0,-3.4037,-3.3999,-3.4101,-3.3983,-3.4162,-3.3998,-3.42,-3.421,-3.4174,-3.4272,-3.4279,-3.4465,-3.4523,-3.4633,-3.5053,-3.5093,0,0,0,-3.4191,-3.4265,-3.4302,-3.4358,-3.437,-3.4386,-3.436,-3.4363,-3.4444,-3.4233,-3.4534,-3.4567,-3.463,-3.4681,-3.4715,-3.4766,-3.4342,-3.4341,-3.4341,-3.4588,-3.4531,-3.4696,-3.4649,-3.4704,-3.4675,-3.4715,-3.4714,-3.4642,-3.4714,-3.4743,-3.5004,-3.5066,-3.5091,-3.5145,-3.4796,-3.4797,-3.4798,-3.4798,-3.4927,-3.5023,-3.4921,-3.5045,-3.4984,-3.5087,-3.5066,-3.5011,-3.5098,-3.4978,-3.5031,-3.4906,-3.5137,-3.5181,-3.4809,-3.4807,-3.4806,-3.4805,-3.4804,-3.5182,-3.5218,-3.5218,-3.5292,-3.5355,-3.53,-3.5388,-3.533,-3.5275,-3.5327,-3.5351,-3.5348,-3.5339,-3.5342,-3.5343,-3.5344,-3.5345,-3.5346,-3.5346,-3.5446,-3.5441,-3.5522,-3.5547,-3.5575,-3.5603,-3.5575,-3.56,-3.5613,-3.5563,-3.5563,-3.5484,-3.517,-3.5093,-3.536,-3.5358,-3.5356,-3.5355,-3.5354,-3.5812,-3.5719,-3.5845,-3.5873,-3.5896,-3.5962,-3.5885,-3.5942,-3.5954,-3.5999,-3.5908,-3.5685,-3.5642,-3.5614,-3.555,-3.5919,-3.5919,-3.5919,-3.5919,-3.6027,-3.5999,-3.6113,-3.6161,-3.6201,-3.6143,-3.6287,-3.6266,-3.623,-3.6234,-3.6171,-3.608,-3.6055,-3.6027,-3.599,-3.5929,-3.6387,-3.6387,-3.6388,-3.6249,-3.6222,-3.6356,-3.6318,-3.6331,-3.6344,-3.6477,-3.6535,-3.6475,-3.6405,-3.6235,-3.6216,-3.6068,-3.6023,-3.5952,-3.5896,-3.5783,0,0]},{"header":{"parameterUnit":"m.s-1","parameterCategory":1,"la1":30.2992,"la2":30.254,"lo1":-89.0895,"lo2":-89.0443,"dy":0.0025,"dx":0.0025,"nx":19,"ny":19,"refTime":"2026-04-08T03:00:00:Z","depth":0,"parameterNumber":3,"parameterNumberName":"V-component_of_WINDS"},"data":[0,0,0,0.2024,0.2022,0.1931,0.1931,0.1835,0.1835,0,0,0,0,0,0,0,0,0,0,0,0.2063,0.2063,0.2024,0.2022,0.1931,0.1931,0.1835,0.1835,0,0,0,0,0,0,0,0,0,0,0,0.2063,0.2063,0.2063,0.2022,0.1931,0.1931,0.1836,0.1897,0,0,0,0,0,0,0,0,0,0,0.1981,0.203,0.2063,0.2063,0.2021,0.1931,0.1931,0.1899,0.1893,0.1885,0,0.1882,0,0.1857,0.183,0.1829,0,0,0,0.2012,0.2035,0.2,0.2063,0.202,0.1932,0.1969,0.1895,0.1888,0.1877,0.1881,0.1877,0.1856,0.1829,0.1829,0.182,0.1821,0,0,0.2017,0.2053,0.2005,0.1996,0.2011,0.1972,0.1967,0.1891,0.1897,0.188,0.1874,0.1854,0.1829,0.1828,0.182,0.182,0,0,0,0.2038,0.2057,0.2023,0.2,0.1982,0.197,0.1963,0.19,0.1886,0.1873,0.1853,0.1828,0.1827,0.1819,0.182,0.1877,0,0,0,0.2041,0.2069,0.2026,0.2047,0.1984,0.194,0.1975,0.1891,0.1882,0.1853,0.1828,0.1826,0.1819,0.182,0.1874,0.1898,0,0,0,0.2065,0.2072,0.2063,0.2049,0.2011,0.194,0.1922,0.1888,0.187,0.1829,0.1826,0.1818,0.182,0.1872,0.1894,0.1908,0,0,0,0.2101,0.2114,0.2065,0.2072,0.2012,0.1977,0.1922,0.1893,0.1864,0.1828,0.1819,0.182,0.1871,0.1891,0.1905,0.1926,0.1938,0,0,0.2137,0.2119,0.2121,0.2074,0.2057,0.1987,0.1978,0.1917,0.1879,0.1842,0.1841,0.1875,0.1894,0.1907,0.1991,0.2001,0,0,0,0.2144,0.2146,0.2133,0.2109,0.2064,0.2028,0.1965,0.1943,0.191,0.1868,0.1882,0.1892,0.1898,0.1907,0.1915,0.1919,0.1825,0.1825,0.1825,0.2248,0.2201,0.22,0.2143,0.212,0.2057,0.2034,0.1993,0.195,0.1955,0.1944,0.2001,0.2012,0.2018,0.2023,0.195,0.195,0.195,0.1951,0.2298,0.2294,0.2239,0.2219,0.217,0.2152,0.2092,0.2063,0.204,0.2004,0.2008,0.1974,0.203,0.2032,0.1954,0.1954,0.1953,0.1953,0.1953,0.2361,0.2351,0.2325,0.2287,0.2263,0.2203,0.2185,0.2139,0.2096,0.21,0.2084,0.2083,0.2077,0.2096,0.2096,0.2096,0.2096,0.2096,0.2096,0.2438,0.2406,0.2397,0.2352,0.2332,0.2299,0.2237,0.2215,0.218,0.2149,0.2148,0.2107,0.2044,0.203,0.2099,0.2099,0.2098,0.2098,0.2098,0.2508,0.2485,0.247,0.2451,0.2395,0.2376,0.2318,0.2279,0.2255,0.2248,0.2206,0.2166,0.2144,0.2137,0.2126,0.2215,0.2215,0.2215,0.2215,0.2562,0.2547,0.2523,0.2494,0.2461,0.2409,0.2394,0.2347,0.2294,0.2276,0.2257,0.2237,0.2232,0.2213,0.2204,0.2192,0.2297,0.2297,0.2297,0.2603,0.2583,0.258,0.2529,0.2483,0.2445,0.2431,0.2401,0.2335,0.2299,0.2262,0.2259,0.2226,0.2217,0.2181,0.2168,0.2146,0,0]}]]